Lid_Strength_Index
5 4 4 4 5 5 5 5 4 4 3 3 3 3 3 4 4 6 6 4 7 8 8 7 7 9 9 9 10 8 9 9 9 12 12 12 12 11 12 10 11 12 13 14 13 15 16 6 7 11 9 6 6 6
5 5 4 4 5 5 5 5 5 5 4 4 4 5 5 5 6 7 8 5 5 9 9 7 6 7 7 7 9 8 9 9 9 11 10 10 12 11 12 14 9 13 10 12 11 13 8 5 6 5 5 6 7 7
5 5 5 4 5 5 5 5 5 5 5 5 5 5 5 6 6 7 7 6 7 9 10 10 9 7 6 6 5 10 9 8 8 6 9 10 12 10 13 12 11 9 7 11 10 8 8 7 5 6 7 7 7 6
5 5 4 4 4 5 5 5 5 5 4 5 5 5 5 5 6 7 7 6 7 9 12 10 6 7 6 6 7 6 8 7 7 8 9 10 12 9 12 11 11 10 9 10 10 8 7 6 6 6 6 6 7 7
5 5 4 4 5 5 5 5 5 5 5 5 5 5 5 5 6 6 6 6 6 9 12 10 8 7 6 7 7 7 8 9 10 10 11 12 10 11 10 10 11 9 10 11 11 8 8 8 6 5 6 7 6 7
5 5 4 4 5 5 5 5 5 5 5 5 5 5 5 5 5 7 10 7 6 6 10 12 8 8 7 7 8 8 8 9 9 11 12 11 9 10 12 13 9 7 7 7 9 7 7 7 6 5 6 6 6 6
5 5 4 4 5 5 5 5 5 5 5 5 5 5 5 5 7 9 10 8 6 6 10 12 11 8 7 7 8 9 7 9 9 10 10 10 9 9 11 13 9 7 6 6 6 6 8 7 7 5 5 5 5 5
5 5 4 5 5 5 5 5 5 5 5 6 6 5 5 6 7 8 7 6 6 9 9 13 12 10 7 10 10 8 9 8 9 10 9 10 9 9 12 9 7 6 6 6 5 5 6 5 5 5 5 5 5 5
5 4 4 5 5 5 5 5 5 5 6 6 6 6 7 8 9 8 5 6 5 8 12 12 12 13 7 8 8 8 8 11 8 10 10 10 11 12 9 8 7 5 6 5 4 4 4 5 5 4 5 4 5 5
4 4 5 5 5 5 5 5 5 5 6 6 8 10 12 8 5 5 8 10 10 9 10 12 10 11 8 9 9 9 8 10 12 9 8 10 10 7 7 6 6 6 5 4 6 6 5 6 5 5 5 4 4 4
4 5 5 5 5 5 5 5 6 6 6 9 10 10 7 5 8 9 11 12 11 12 10 10 10 10 6 9 9 8 9 9 12 10 10 10 10 7 5 5 4 4 4 4 4 4 4 5 5 5 5 4 4 4
4 5 5 5 5 5 6 6 6 8 9 8 8 7 7 8 10 12 13 12 12 13 10 10 9 8 7 5 8 7 10 9 13 7 10 12 9 6 6 5 5 4 4 4 4 4 4 4 4 4 4 4 4 4
4 4 4 5 5 6 6 6 7 6 6 7 8 10 10 11 16 15 16 13 12 9 8 8 9 7 7 6 8 9 10 11 7 11 11 9 7 6 5 5 4 4 4 4 4 4 4 4 3 4 4 4 3 4
4 4 5 5 5 6 6 6 5 5 7 9 11 14 13 14 13 12 11 10 7 7 7 7 7 8 7 9 9 10 9 8 12 13 11 9 7 6 5 4 5 5 4 4 4 4 4 4 4 4 4 3 3 4
4 5 5 5 5 5 5 5 5 5 7 10 10 14 13 10 9 8 7 7 6 5 6 6 7 7 8 8 8 9 9 12 11 12 10 7 6 5 5 5 5 5 5 4 4 4 5 5 5 5 5 5 5 5
5 5 6 5 5 5 5 5 5 5 7 9 10 11 9 9 9 7 7 7 5 5 5 6 8 10 10 9 10 10 10 11 11 9 7 6 5 5 5 4 4 4 4 4 4 5 5 5 6 6 6 6 6 5
5 7 5 5 5 5 5 6 6 8 9 10 10 7 7 7 7 6 6 6 3 5 8 8 10 10 7 10 10 8 11 9 7 7 5 5 5 5 4 4 4 4 5 5 5 5 5 5 6 7 8 8 8 7
6 5 5 5 4 5 5 5 7 8 11 9 9 8 7 6 6 5 4 4 5 6 6 8 6 9 11 10 10 8 7 6 5 5 5 4 4 4 4 4 4 4 4 4 4 5 5 6 7 7 7 8 8 8
5 4 4 4 5 6 7 7 6 10 9 7 7 6 6 5 4 4 4 4 3 3 5 6 8 10 9 7 8 7 6 6 6 5 4 4 4 4 4 4 4 4 4 5 4 5 5 5 6 7 7 7 8 8
4 4 4 4 4 5 7 6 4 7 7 6 5 5 5 5 4 4 4 4 5 5 7 8 8 6 6 6 5 5 5 4 5 6 6 4 3 3 4 4 4 4 5 5 4 6 4 5 5 6 6 7 7 8
3 4 3 4 3 4 5 5 6 5 5 6 5 5 6 4 5 6 6 4 6 7 8 6 5 4 3 3 3 3 4 4 5 5 5 5 4 4 4 4 3 4 5 5 5 5 6 4 4 4 5 6 7 7
4 3 3 3 4 4 4 3 5 4 5 5 5 5 7 7 7 6 4 6 7 6 5 5 4 4 4 4 4 3 3 3 3 3 4 4 4 4 4 4 4 4 5 4 5 6 6 6 4 3 5 6 7 7
2 1 3 4 7 8 7 3 6 6 8 8 8 9 9 8 6 4 7 6 5 4 3 3 3 3 3 3 3 3 3 3 4 4 3 3 3 3 4 4 3 4 4 4 4 5 6 8 6 4 5 5 6 7
2 4 7 8 7 9 6 8 7 7 7 9 9 10 9 8 6 7 9 7 5 4 4 4 3 4 4 4 4 4 3 3 3 3 3 3 4 4 3 3 3 3 3 3 4 5 5 5 7 5 5 5 4 5
8 8 8 10 7 8 9 8 8 8 10 8 8 8 8 6 9 9 9 7 5 5 4 4 4 4 5 5 4 3 2 2 4 4 3 3 3 3 3 3 2 2 3 3 4 4 5 5 5 6 7 6 6 6
9 7 8 8 8 8 8 9 8 8 8 8 8 6 6 7 9 11 9 6 5 5 5 5 5 5 4 4 4 4 3 2 2 4 3 2 3 3 4 4 4 3 2 3 3 4 5 6 6 6 7 7 10 6
9 8 6 4 5 6 7 7 6 8 9 9 8 8 8 11 11 9 6 6 6 5 5 5 5 5 4 4 3 2 1 1 2 2 2 2 2 2 2 3 4 2 1 2 3 4 5 6 7 7 7 7 7 7
6 6 9 6 6 6 8 8 9 10 9 8 8 10 10 11 11 8 7 6 6 5 5 4 4 4 4 3 3 3 2 2 2 2 2 2 1 1 1 1 4 10 5 5 2 3 5 5 6 7 7 8 7 7
6 5 5 7 7 8 8 9 9 8 7 7 9 9 10 8 7 8 7 6 6 5 5 5 4 3 3 3 2 2 2 3 3 4 4 4 4 3 1 1 1 2 3 5 11 6 5 6 6 6 7 7 7 7
6 4 6 7 8 9 8 7 7 6 6 6 6 7 7 8 7 6 6 7 7 7 5 3 2 2 4 3 4 3 2 2 2 3 4 4 3 1 1 1 1 1 3 3 4 6 10 7 8 7 7 7 7 7
4 5 6 7 7 7 6 4 5 5 5 5 5 7 8 7 6 6 6 6 6 6 5 5 4 2 3 3 3 3 4 2 2 1 1 2 2 1 1 1 0 0 1 2 3 4 5 5 6 6 7 8 8 8
5 6 7 8 8 5 5 6 6 7 6 7 7 6 7 8 10 8 6 7 7 7 8 6 5 4 3 1 1 1 8 1 1 1 1 1 2 2 2 0 0 0 1 2 3 4 4 5 5 5 6 6 7 6
5 5 5 6 7 7 6 6 7 8 7 8 8 7 8 9 11 8 6 6 7 8 7 6 5 4 3 2 1 1 5 0 5 9 8 10 11 7 5 0 1 0 1 2 2 3 4 4 5 5 5 5 5 4